User: anonymous   Login
Location: STAR School
(35.3054°N, 111.2976°W)
Time: 12:59:13
(UTC-07:00)
Language:

Tiros 1 despin weight - Orbit

View from above orbital plane
View from above orbital plane
View from above satellite
View from above satellite

Ground track
Ground track

The orbit data is extracted from the following two-line orbital elements,

1   115U 60002D   19288.42522319  .00000081  00000-0  36744-4 0  9998
2   115  48.1683  17.2014 0035135 244.7433 114.9836 14.83490573176446
Epoch (UTC): 15 October 2019 10:12:19
Eccentricity: 0.0035135
inclination: 48.1683°
perigee height: 594 km
apogee height: 643 km
right ascension of ascending node: 17.2014°
argument of perigee: 244.7433°
revolutions per day: 14.83490573
mean anomaly at epoch: 114.9836°
orbit number at epoch: 17644

The dashed part of the orbit path shows where the satellite is in the earth's shadow,  

DLR